Voltar ao catálogo

KUIPER-00596

AtivoComunicaçõesLEO
NORAD 69281·PAYLOAD·🇺🇸 United States

Lançado May 29, 2026 de Vandenberg Space Force Base

Loading…

Próximas Passagens (próximas 24 horas)

TLE

AtualizadoSource: CelesTrak SupGP

Época: Sep 14, 2026, 19:45 UTC

1 69281C 26118Q   26257.82304398  .00008018  00000+0  10497-2 0  2579
2 69281  51.9027   9.3000 0000454 100.2634 133.8863 14.79921794    19

Acompanhe KUIPER-00596 em tempo real com AllMySat

Download on the App Store